MINOTAUR 4 DEB, 54256

Orbit data source: Space-Track

MINOTAUR 4 DEB, 54256 is space debris in LEO originally from a launch on Wed, 15 Jul 2020 UTC launched from the Wallops Island (WLPIS). Debris objects in space refer to the collection of defunct objects orbiting the Earth. Examples of debris include non-operational satellites, rocket bodies, and fragments generated from explosions, collisions, or faulty payload assembly.

Loading next visibility...
MINOTAUR 4 DEB details
Identifier
54256, 2020-046AK
Orbit
LEO
Last TLE update14 hours ago
Origin
Flag of USUSSF SSC (US)
ManufacturerNGIS FSG
MissionSpacecraft
Bus & MotorUnknown
MassUnknown
Launch date (UTC)
2020-07-15 (4 years ago)
Launch vehicleUnknown
Launch site
Wallops Island (WLPIS)
Object type
Payload
Rocket body
Debris
Shape & HBRUnknown
Radar Cross SectionSmall (<0.1 m²)

Expand to show TLE details & history

TLE from 14 hours ago
0 MINOTAUR 4 DEB
1 54256U 20046AK  24361.06095712  .00026230  00000-0  15684-2 0  9999
2 54256  54.2326 123.4520 0027529 183.6578 176.4231 15.10621099164331
Epoch: 2024-12-26T01:27Z
Definitive object data (Epoch: 2024-12-26T01:27:46.695Z)
Latitude-0°
Longitude6.46167°
Altitude554.303 km
Speed7.575 km/s
True Right ascension08h 13m 48s
True Declination0° 00' 00"
Sunlit
Object was in full shadow at TLE epoch
Visualization TLE readout
Latitude9.92004°
Longitude11.03227°
Altitude553.347 km
Speed7.577 km/s
Apparent Right ascension06h 22m 59s
Apparent Declination-17° 41' 06"
Sunlit
Object is in full shadow
Visualization observer readout
Local Sidereal Time15:10:34
Azimuth283.882° WNW
Elevation-43.072°
Doppler factor1
Orbital elements
Apogee altitude553.418 km
Perigee altitude515.359 km
Semi-major axis6,912.525 km
Eccentricity0.0027529
Inclination54.2326°
RAAN123.452°
Arg. of periapsis183.6578°
True anomaly176.44271°
Mean anomaly176.4231°
Eccentric anomaly176.43291°
Mean motion3.77649 °/min
BSTAR0.0015684
Orbital period95.33 mins
Loading maneuver chart data...
Loading historical data...
Loading historical data...
Loading historical data...
Loading historical data...
Loading historical data...
Loading historical data...
Loading historical data...

MINOTAUR 4 DEB Visibility forecast

Observer location: undefined°, undefined

Span
Click to sort rows by Start time (UTC) header in descending order
Start Az.
Max El. time (UTC)
Max El. Az.
Max El.
End time (UTC)
End Az.
4 mins2024-12-26 16:11:30.935Z341.4° N2024-12-26 16:13:30.935Z11.718° NNE15.262°2024-12-26 16:15:30.935Z46.594° ENE
6 mins2024-12-26 17:51:30.935Z323.741° NNW2024-12-26 17:53:30.935Z18.314° NNE41.414°2024-12-26 17:57:30.935Z121.262° SE
6 mins2024-12-27 11:00:30.935Z238.083° WSW2024-12-27 11:02:30.935Z277.256° WNW42.829°2024-12-27 11:06:30.935Z44.394° NE
|